{"data":{"norad_id":64480,"intl_designator":"2025-133J","name":"STARLINK-34518","alt_names":[],"object_type":"PAYLOAD","status":"ACTIVE","operator":null,"country":"US","launch_date":"2025-06-23","launch_site_code":"AFETR","launch_vehicle":null,"mission":null,"orbit_class":"UNKNOWN","rcs_meters":null,"size_class":null,"mass_kg":null,"dimensions":null,"purposes":["comms"],"wikipedia_slug":null,"has_3d_model":false,"image_url":null,"decayed_at":null,"tle_current":{"epoch":"2026-05-25T04:32:28.920768Z","epoch_age_seconds":54754,"freshness":"FRESH","line1":"1 64480U 25133J   26145.18922362  .00026660  00000+0  90856-3 0  9997","line2":"2 64480  53.1598 121.2663 0001403  71.1647 288.9506 15.30216302 52749","mean_motion":15.30216302,"eccentricity":0.0001403,"inclination_deg":53.1598,"raan_deg":121.2663,"arg_perigee_deg":71.1647,"mean_anomaly_deg":288.9506,"bstar":0.00090856,"rev_number":5274,"period_min":94.104343164944,"perigee_km":474.20487655159,"apogee_km":476.12791348423,"semimajor_km":6853.3033950179,"source":"CELESTRAK","updated_at":"2026-05-25T13:38:20.458045Z"}}}